Location: Niagara
(43.2500°N, 79.0670°W)
Time: 19:46:28
(UTC-04:00)

Tiangong 1 - Pass Details

Date: 14 October 2017
Orbit: 293 x 320 km, 42.8° (Epoch: 18 October)

Event Time Altitude Azimuth Distance (km) Brightness Sun altitude
Rises 20:03:57 0° 276° (W) 2,040 6.5 -17.1°
Reaches altitude 10° 20:06:07 10° 262° (W) 1,204 4.8 -17.5°
Maximum altitude 20:08:24 25° 204° (SSW) 680 2.5 -17.9°
Enters shadow 20:08:44 24° 190° (S) 694 2.4 -17.9°
